Weather History for Cordova, AK

Change the Weather History Date:

Sunday, August 11, 2013

  Actual Average Record
Temperature  
Mean Temperature 58 °F -  
Max Temperature 62 °F 62 °F 78 °F (2007)
Min Temperature 55 °F 48 °F 34 °F (1969)
Degree Days  
Heating Degree Days 7    
Growing Degree Days 8 (Base 50)    
Moisture  
Dew Point 53 °F    
Average Humidity 85    
Maximum Humidity 97    
Minimum Humidity 75    
Precipitation  
Precipitation 0.06 in - - ()
Sea Level Pressure  
Sea Level Pressure 30.06 in    
Wind  
Wind Speed 4 mph (ENE)    
Max Wind Speed 9 mph    
Max Gust Speed -    
Visibility 8 miles    
Events Rain    
Averages and records for this station are not official NWS values.
T = Trace of Precipitation, MM = Missing Value Source: NWS Daily Summary

Daily Weather History Graph

Daily Weather History Graph

Search for Another Location

Airport:

Trip Planner

Search our weather history database for the weather conditions in past years. The results will help you decide how hot, cold, wet, or windy it might be!

Date:

Astronomy

Aug. 11, 2013 Rise Set
Actual Time 5:44 AM AKDT 9:47 PM AKDT
Civil Twilight 4:50 AM AKDT 10:41 PM AKDT
Nautical Twilight 3:22 AM AKDT 12:06 AM AKDT
Astronomical Twilight Sun does not rise Sun does not rise
Moon 12:22 PM AKDT (8/11) 10:23 PM AKDT (8/11)
Length of Visible Light 17h 51m
Length of Day
16h 02m
Waxing Crescent, 23% of the Moon is Illuminated
Aug 11
Waxing Crescent
Aug 14
First Quarter
Aug 20
Full
Aug 28
Last Quarter
Sep 5
New

Hourly Weather History & Observations

Time (AKDT) Temp. Dew Point Humidity Pressure Visibility Wind Dir Wind Speed Gust Speed Precip Events Conditions
12:53 AM 57.9 °F 51.1 °F 78% 30.05 in 10.0 mi ENE 9.2 mph - N/A   Overcast
1:53 AM 57.9 °F 50.0 °F 75% 30.05 in 10.0 mi East 5.8 mph - N/A   Overcast
2:53 AM 57.0 °F 51.1 °F 81% 30.05 in 10.0 mi Calm Calm - N/A   Overcast
3:34 AM 55.4 °F 51.8 °F 88% 30.05 in 10.0 mi Calm Calm - N/A   Overcast
3:53 AM 55.0 °F 51.1 °F 86% 30.05 in 10.0 mi Calm Calm - N/A   Overcast
4:53 AM 57.0 °F 50.0 °F 77% 30.05 in 10.0 mi ENE 6.9 mph - N/A   Overcast
5:53 AM 57.0 °F 50.0 °F 77% 30.05 in 10.0 mi ENE 8.1 mph - 0.00 in   Overcast
6:53 AM 57.0 °F 51.1 °F 81% 30.05 in 10.0 mi Variable 3.5 mph - N/A   Overcast
7:53 AM 57.9 °F 50.0 °F 75% 30.04 in 10.0 mi East 4.6 mph - N/A   Overcast
8:53 AM 57.0 °F 51.1 °F 81% 30.05 in 10.0 mi East 4.6 mph - N/A   Overcast
9:53 AM 57.9 °F 51.1 °F 78% 30.05 in 10.0 mi Calm Calm - 0.00 in   Overcast
10:53 AM 57.9 °F 52.0 °F 81% 30.05 in 10.0 mi Calm Calm - N/A   Overcast
11:53 AM 59.0 °F 55.0 °F 87% 30.06 in 10.0 mi Calm Calm - N/A   Overcast
12:53 PM 61.0 °F 54.0 °F 78% 30.06 in 10.0 mi ENE 4.6 mph - N/A   Overcast
1:53 PM 61.0 °F 54.0 °F 78% 30.07 in 10.0 mi NNE 3.5 mph - N/A   Overcast
2:53 PM 60.1 °F 55.0 °F 83% 30.08 in 10.0 mi Calm Calm - N/A   Overcast
3:53 PM 60.1 °F 57.0 °F 90% 30.08 in 3.0 mi Calm Calm - 0.01 in Rain Light Rain
4:53 PM 60.1 °F 57.9 °F 93% 30.08 in 3.0 mi Calm Calm - 0.02 in Rain Light Rain
4:59 PM 60.8 °F 57.2 °F 88% 30.08 in 1.8 mi Calm Calm - 0.00 in Rain Light Rain
5:20 PM 60.8 °F 57.2 °F 88% 30.08 in 2.0 mi Calm Calm - 0.01 in Rain Light Rain
5:46 PM 60.8 °F 57.2 °F 88% 30.07 in 3.0 mi Calm Calm - 0.01 in Rain Light Rain
5:53 PM 59.0 °F 57.0 °F 93% 30.08 in 2.5 mi ESE 3.5 mph - 0.01 in Rain Light Rain
6:08 PM 59.0 °F 57.2 °F 94% 30.07 in 1.8 mi Calm Calm - 0.01 in Rain Light Rain
6:53 PM 57.9 °F 57.0 °F 97% 30.06 in 4.0 mi ENE 5.8 mph - 0.02 in   Overcast
7:53 PM 57.9 °F 55.9 °F 93% 30.07 in 10.0 mi Calm Calm - N/A   Overcast
8:53 PM 55.9 °F 53.1 °F 90% 30.08 in 10.0 mi Calm Calm - N/A   Overcast
9:53 PM 55.9 °F 54.0 °F 93% 30.08 in 10.0 mi NNE 5.8 mph - N/A   Overcast
10:53 PM 55.9 °F 52.0 °F 87% 30.08 in 10.0 mi NE 6.9 mph - N/A   Overcast
11:53 PM 55.0 °F 50.0 °F 83% 30.08 in 10.0 mi NE 5.8 mph - N/A   Overcast